Location: Peebles
(55.6410°N, 3.1709°W)
Time: 01:55:25
(UTC+00:00)

Daily predictions for brighter satellites

Satellite Brightness Start Highest point End
(mag) Time Altitude Azimuth Time Altitude Azimuth Time Altitude Azimuth
CENTAUR R/B 4.5 00:06:49 10° WNW 00:09:42 26° NW 00:09:42 26° NW
SL-16 R/B 4.4 00:35:40 24° NNE 00:35:40 24° NNE 00:38:33 10° N
ADEOS Rocket 4.5 01:34:18 10° NNE 01:38:11 36° N 01:38:11 36° N
Cosmos 1943 Rocket 4.4 01:48:52 21° NE 01:48:52 21° NE 01:50:40 10° NE
Cosmos 2278 Rocket 4.4 01:48:55 20° N 01:48:55 20° N 01:51:38 10° NNE
Resurs 1-4 Rocket 4.4 01:50:25 10° NNE 01:52:19 21° NE 01:52:19 21° NE
ATLAS 2AS CENTAUR R/B 3.6 02:00:06 53° ENE 02:00:06 53° ENE 02:06:02 10° NE
Cosmos 2369 Rocket 4.1 02:09:32 26° NNE 02:09:32 26° NNE 02:11:59 10° NNE
SL-16 R/B 4.4 02:20:45 21° NNW 02:20:45 21° NNW 02:22:37 10° NNW
ARIANE 5 R/B 4.5 02:30:11 10° NNE 02:32:20 25° NE 02:32:20 25° NE
NOSS 3-1 (C) 4.5 02:50:36 44° NNW 02:51:24 45° N 02:58:41 10° ENE
CZ-2D R/B 3.5 02:59:23 10° NNE 03:02:18 33° N 03:02:18 33° N
SL-8 Rocket 4.3 03:07:52 61° NE 03:07:52 61° NE 03:13:08 10° NNE
COSMOS 2455 3.3 03:14:54 60° NE 03:14:54 60° NE 03:20:41 10° ESE
Aureole 1 Rocket 4.3 03:10:03 10° NNW 03:18:09 77° ENE 03:20:56 39° SE
ADEOS II 2.8 03:22:13 10° NNE 03:27:07 50° E 03:27:07 50° E
Cosmos 1943 Rocket 3.5 03:30:23 30° NNW 03:30:23 30° NNW 03:34:23 10° NNE
SL-08 R/B 4.5 03:31:45 76° E 03:31:45 76° E 03:37:48 10° NNE
Cosmos 2278 Rocket 4.5 03:30:45 13° NNW 03:33:28 17° N 03:37:09 10° NE
RESURS DK-1 4.3 03:36:11 28° NE 03:36:11 28° NE 03:38:15 10° NE
Resurs 1-4 Rocket 3.4 03:30:17 10° N 03:33:24 32° NNW 03:33:24 32° NNW
Cosmos 2263 Rocket 3.6 03:30:11 10° NNW 03:35:24 36° NE 03:40:38 10° ESE
BREEZE-M DEB (TANK) 4.5 03:41:07 48° SSE 03:41:07 48° SSE 03:52:11 10° E
ADEOS 4.1 03:41:09 10° NNE 03:45:08 52° N 03:45:08 52° N
NOSS 2-2 (E) 4.3 03:49:40 55° ENE 03:49:40 55° ENE 03:53:54 10° NE
Meteor 1-27 4.2 03:49:38 86° NE 03:49:38 86° NE 03:55:24 10° NNE
ATLAS 2AS CENTAUR R/B 3.4 03:47:31 45° WNW 03:49:33 55° NNW 03:57:29 10° ENE
NOSS 2-2 (D) 4.3 03:51:11 53° ENE 03:51:11 53° ENE 03:55:16 10° NE
Meteor 2-2 Rocket 4.4 03:51:24 59° NNW 03:51:24 59° NNW 03:56:10 10° NNE
Cosmos 2369 Rocket 3.7 03:51:18 24° NNW 03:51:28 24° NNW 03:56:03 10° NNE
Cosmos 2278 4.2 03:53:45 48° SSE 03:54:43 55° ESE 04:00:18 10° NE
Cosmos 1656 4.0 03:58:07 52° SSE 03:58:53 57° ESE 04:04:16 10° NE
Cosmos 2227 4.1 04:01:47 26° NNW 04:05:06 82° NE 04:10:45 10° SE
Okean O Rocket 3.2 04:01:47 10° NNE 04:05:49 33° E 04:08:35 17° SSE
Cosmos 864 Rocket 4.4 04:06:14 66° W 04:06:30 66° WNW 04:12:48 10° N
Cosmos 2366 rocket 3.9 04:09:57 60° WNW 04:10:00 60° WNW 04:16:08 10° N
PSLV R/B 3.9 04:06:04 10° NNE 04:10:25 62° ESE 04:10:33 62° ESE
USA 229 DEB 4.0 04:06:06 26° NW 04:10:26 68° NNE 04:17:42 10° ESE
USA 229 4.0 04:06:13 26° NW 04:10:32 67° NNE 04:17:48 10° ESE
Cosmos 858 Rocket 4.4 04:10:36 74° S 04:11:02 82° ESE 04:16:23 10° NNE
Cosmos 2084 4.5 04:11:15 36° NNE 04:11:15 36° NNE 04:14:38 10° E
Cosmos 1980 Rocket 3.7 04:07:27 15° SSE 04:11:27 33° ESE 04:16:27 10° NE
NOSS 3-1 (A) 4.5 04:07:48 26° NW 04:11:43 52° NNE 04:19:23 10° E
Cosmos 2150 Rocket 4.3 04:11:12 49° SSE 04:12:17 61° ESE 04:17:23 10° NNE
NOSS 2-2 (C) 3.7 04:14:21 76° NNE 04:14:21 76° NNE 04:19:15 10° NE
ARIANE 5 R/B 3.7 04:09:38 10° N 04:12:40 28° NNW 04:12:40 28° NNW
NOSS 3-4 (A) 3.6 04:14:36 56° W 04:15:47 67° NNW 04:22:32 10° NE
NOSS 3-4 (C) 3.6 04:14:42 56° W 04:15:53 67° NNW 04:22:38 10° NE
Genesis I 3.9 04:16:45 52° E 04:16:45 52° E 04:20:11 10° NE
Cosmos 1869 3.8 04:22:08 54° NNE 04:22:08 54° NNE 04:25:17 10° NNE
Cosmos 2369 3.7 04:21:54 54° SSW 04:23:17 84° ESE 04:29:03 10° NE
Cosmos 2228 Rocket 3.9 04:24:31 41° NNW 04:24:31 41° NNW 04:27:52 10° N
Cosmos 2218 Rocket 4.2 04:23:42 46° WNW 04:23:42 46° WNW 04:29:38 10° N
Cosmos 1000 Rocket 4.4 04:18:31 10° NNW 04:24:44 66° W 04:28:08 28° S
Cosmos 1048 Rocket 3.8 04:20:40 10° NNW 04:25:52 80° WSW 04:30:59 10° SSE
Cosmos 2098 Rocket 4.1 04:25:19 50° SW 04:26:54 63° WNW 04:34:12 10° N
Cosmos 1151 Rocket 3.9 04:33:12 37° NNW 04:33:12 37° NNW 04:36:16 10° N
Cosmos 405 3.7 04:28:37 10° N 04:32:09 54° ENE 04:35:40 10° SSE
Cosmos 1937 Rocket 3.4 04:35:48 55° SW 04:36:56 77° WNW 04:42:16 10° NNE
Cosmos 1898 Rocket 3.5 04:37:41 54° W 04:38:26 60° WNW 04:43:42 10° NNE
Cosmos 2239 Rocket 4.4 04:34:03 18° S 04:38:44 89° E 04:44:58 10° NNE
Cosmos 1697 Rocket 2.8 04:37:48 33° SSW 04:40:24 75° ESE 04:46:02 10° NE
NOSS 3-1 (C) 4.2 04:37:59 18° NW 04:43:23 67° NNE 04:51:23 10° ESE
CZ-2D R/B 3.7 04:40:24 10° N 04:43:38 19° NW 04:43:38 19° NW
Cosmos 990 Rocket 3.9 04:44:19 49° WSW 04:45:40 70° WNW 04:50:56 10° NNE
Cosmos 1733 Rocket 3.4 04:42:28 10° N 04:46:50 64° ENE 04:51:12 10° SSE
SL-16 R/B 4.4 04:44:20 10° SSE 04:48:48 25° ESE 04:53:18 10° NE
Cosmos 1605 Rocket 4.4 04:43:57 10° S 04:49:56 62° E 04:55:57 10° NNE
Cosmos 1125 Rocket 4.4 04:45:39 10° S 04:50:37 48° ESE 04:55:39 10° NE
Cosmos 1340 4.2 04:52:12 23° NNW 04:52:12 23° NNW 04:54:09 10° N
SJ 16-02 2.0 04:48:09 17° S 04:51:20 53° ESE 04:55:40 10° NNE
BREEZE-M DEB (TANK) 3.6 04:55:57 25° S 04:55:57 25° S 05:00:12 10° SE
Aureole 3 3.8 04:56:14 10° N 04:59:11 44° ENE 05:02:05 10° SSE
CZ-2C R/B 4.5 04:55:36 10° NNE 05:00:04 30° E 05:04:35 10° SSE
COSMOS 2455 3.1 04:58:07 29° WNW 05:00:33 43° WSW 05:06:12 10° S
Meteor 1-31 Rocket 2.8 04:58:28 10° NNE 05:02:20 79° ESE 05:05:10 18° S
Okean-O 4.5 05:01:38 10° NNE 05:05:39 32° E 05:09:38 10° SSE
ADEOS II 2.7 05:02:13 10° N 05:06:59 36° WNW 05:08:04 32° W
CZ-4B R/B 3.2 05:02:11 10° NNE 05:07:40 84° ESE 05:13:12 10° SSW
COSMO-SKYMED 1 2.6 05:03:24 10° SSE 05:07:45 85° ENE 05:12:08 10° NNW
CZ-4B R/B 2.9 05:04:22 10° N 05:08:00 47° WNW 05:08:21 46° W
Cosmos 1933 3.4 05:05:16 10° S 05:09:20 80° E 05:13:25 10° NNE
ERBS 2.3 05:11:20 50° WNW 05:12:06 76° N 05:15:32 10° E
RESURS DK-1 3.7 05:12:05 23° NW 05:12:37 24° NNW 05:16:04 10° NNE
Resurs 1-4 Rocket 4.0 05:11:41 10° NNW 05:14:02 13° NW 05:14:29 13° NW
Cosmos 1943 Rocket 4.1 05:11:54 12° NW 05:14:54 18° N 05:18:34 10° NNE
Meteor PRIRODA 3.5 05:12:17 10° N 05:16:02 72° WNW 05:18:19 22° SSW
SS 2 4.3 05:15:56 66° W 05:16:12 74° SW 05:19:05 10° SE
Meteor 1-20 Rocket 4.4 05:11:08 10° NNW 05:17:02 78° ENE 05:22:50 10° SSE
Geosat 4.0 05:13:53 10° SE 05:18:56 86° NE 05:24:01 10° NNW
Cosmos 494 Rocket 3.8 05:13:49 10° NNW 05:18:58 74° WSW 05:24:04 10° SSE
Cosmos 2278 Rocket 4.0 05:14:41 10° NNW 05:19:31 27° NNE 05:24:20 10° E
Cosmos 2263 Rocket 2.1 05:14:08 10° NW 05:19:46 68° WSW 05:25:24 10° SSE
CZ-2C R/B 3.7 05:15:11 10° S 05:19:47 60° WSW 05:24:19 10° NNW
Cosmos 1455 4.5 05:22:28 12° NW 05:22:28 12° NW 05:23:03 10° NNW
IRS-1C Rocket 4.1 05:16:00 10° NNE 05:21:19 87° ESE 05:26:37 10° SSW
MTI 3.8 05:19:10 10° SSE 05:22:21 81° ENE 05:25:34 10° NNW
Cosmos 1934 Rocket 4.0 05:17:11 10° SSW 05:23:31 64° WNW 05:29:52 10° N
CZ-4B DEB 4.2 05:22:02 10° NNE 05:27:29 66° WNW 05:32:56 10° SSW
Cosmos 1707 Rocket 3.7 05:25:35 15° SSW 05:29:05 52° WNW 05:33:30 10° N
Cosmos 1269 Rocket 4.5 05:25:17 10° NW 05:30:06 36° WSW 05:34:53 10° S
Meteor 1-14 Rocket 4.3 05:24:14 10° NNW 05:30:15 78° WSW 05:36:11 10° S
Meteor 2-10 Rocket 3.6 05:26:39 17° SW 05:30:19 48° WNW 05:35:13 10° N
Cosmos 2123 Rocket 4.3 05:24:36 10° NNW 05:30:21 41° W 05:36:07 10° SSW
CZ-4B R/B 4.1 05:26:32 10° N 05:30:59 62° WNW 05:35:15 10° SSW
Cosmos 1437 Rocket 3.1 05:31:21 10° NNW 05:35:28 73° ENE 05:39:28 10° SSE
Cosmos 1606 4.1 05:32:18 10° SSE 05:35:52 40° E 05:39:27 10° NNE
Cosmos 2360 4.2 05:30:27 10° SW 05:36:12 83° NW 05:41:58 10° NE
Cosmos 2369 Rocket 4.2 05:33:53 10° NW 05:37:36 17° N 05:41:18 10° NE
Cosmos 1633 2.4 05:33:57 10° NNW 05:37:36 78° W 05:41:15 10° S
Cosmos 2278 4.2 05:35:41 21° WSW 05:39:05 43° NW 05:44:33 10° NNE
Cosmos 1782 Rocket 4.1 05:37:18 10° N 05:41:38 61° ENE 05:45:56 10° SSE
ATLAS 2AS CENTAUR R/B 3.7 05:34:56 13° WNW 05:42:01 50° N 05:49:40 10° E
Okean O Rocket 2.1 05:38:06 10° N 05:42:18 41° WNW 05:46:04 12° SW
Cosmos 1656 4.2 05:39:33 20° W 05:42:47 39° NW 05:47:59 10° NNE
Cosmos 1844 Rocket 3.3 05:37:24 10° NNW 05:42:59 59° NE 05:48:35 10° SE
PAYLOAD A 4.0 05:40:27 10° NNE 05:45:15 79° ESE 05:50:09 10° SSW
Cosmos 2322 Rocket 3.0 05:39:53 10° S 05:45:24 54° ESE 05:50:58 10° NE
NOAA 6 4.1 05:42:02 10° NNE 05:47:15 84° ESE 05:52:25 10° SSW
Cosmos 2084 3.1 05:47:50 16° WNW 05:50:48 69° SW 05:54:35 10° SE
Meteor 1-25 Rocket 4.3 05:46:55 10° NNW 05:52:32 60° W 05:58:12 10° S
Cosmos 1818 3.7 05:47:15 10° NW 05:52:46 84° NE 05:58:15 10° SE
Cosmos 2360 Rocket 4.2 05:48:27 10° SSE 05:53:22 31° ESE 05:58:17 10° NE
Cosmos 489 Rocket 4.4 05:47:22 10° SSW 05:53:39 77° WNW 05:59:55 10° NNE
Genesis I 4.0 05:51:43 19° W 05:54:05 38° NNW 05:57:53 10° NE
Cosmos 1980 Rocket 2.2 05:49:33 10° SW 05:55:11 63° NW 06:00:50 10° NNE
SKYMED 2 4.0 05:51:53 10° SSW 05:55:56 38° W 06:00:02 10° NNW
Cosmos 405 Rocket 2.7 05:52:38 10° SSW 05:56:32 64° WNW 06:00:22 10° N
Sich 1 Rocket 3.5 05:53:22 10° NNW 05:57:47 80° W 06:02:10 10° S
USA 229 DEB 4.0 05:54:31 10° NW 06:01:22 52° SW 06:08:24 10° SSE
USA 229 4.0 05:54:38 10° NW 06:01:29 52° SW 06:08:32 10° SSE
ATLAS 5 CENTAUR R/B 2.5 05:57:00 10° SSW 06:01:35 57° SE 06:06:45 10° NE
Cosmos 1153 Rocket 4.5 05:56:11 10° SSW 06:02:19 68° WNW 06:08:34 10° N
NOSS 3-1 (A) 4.0 05:56:07 10° NW 06:03:20 85° SW 06:11:34 10° SE
NOSS 3-4 (A) 4.3 06:02:02 12° WNW 06:07:41 44° N 06:14:19 10° ENE
NOSS 3-4 (C) 4.3 06:02:07 12° WNW 06:07:47 44° N 06:14:25 10° ENE
Okean 2 Rocket 3.5 06:04:08 10° N 06:08:38 70° ENE 06:13:08 10° SSE
Meteor 1-11 Rocket 4.2 06:02:54 10° NNW 06:08:51 73° ENE 06:14:49 10° SSE
IDEFIX/ARIANE 42P 2.6 06:05:48 10° NNE 06:11:02 68° WNW 06:16:12 10° SSW
Cosmos 1844 3.9 06:08:44 10° NNW 06:14:20 73° NE 06:19:54 10° SE
Cosmos 2242 Rocket 4.0 06:10:16 10° SW 06:14:40 45° WNW 06:19:06 10° N
Cosmos 1703 Rocket 3.9 06:10:23 10° S 06:14:51 76° E 06:19:22 10° NNE
Cosmos 2251 Rocket 3.9 06:12:27 10° NW 06:17:27 44° WSW 06:22:28 10° S
EO 1 Del DPAF 3.8 06:15:17 10° SSW 06:18:50 36° W 06:22:26 10° NNW
Cosmos 372 Rocket 4.3 06:14:22 10° SW 06:19:18 45° NW 06:24:17 10° NNE
Cosmos 1908 Rocket 4.0 06:17:08 10° NNW 06:21:16 40° W 06:25:20 10° SSW
Tsikada Rocket 4.1 06:15:18 10° NNW 06:21:41 89° ENE 06:27:57 10° S
Cosmos 1733 Rocket 4.3 06:21:03 10° NW 06:24:14 20° W 06:27:24 10° SW
SMAP 4.4 06:19:52 10° NNE 06:24:23 46° E 06:28:52 10° S
Cosmos 1697 Rocket 3.5 06:19:49 10° WSW 06:24:54 34° NW 06:30:01 10° NNE
Lacrosse 4 Rocket 4.5 06:22:49 10° SSE 06:25:27 17° ESE 06:28:06 10° ENE
Thor Agena Rocket 3.6 06:20:21 10° SSE 06:25:37 80° WSW 06:30:50 10° NNW
Timation 1 Rocket 4.5 06:20:03 10° NW 06:26:04 83° NE 06:32:04 10° SE
MSX 3.8 06:21:07 10° NNE 06:26:54 79° WNW 06:32:41 10° SSW
COSMOS 2441 4.4 06:24:33 10° NNE 06:29:28 74° WNW 06:34:22 10° SSW
SJ 16-02 2.3 06:26:20 10° WSW 06:30:12 29° NW 06:34:06 10° NNE
SL-16 R/B 2.2 06:26:40 10° SW 06:32:21 81° NW 06:38:05 10° NNE
Cosmos 1125 Rocket 4.0 06:27:59 10° WSW 06:32:52 39° NW 06:37:47 10° NNE
NOSS 3-1 (C) 4.2 06:27:21 10° NW 06:34:26 56° SW 06:42:27 10° SSE
Cosmos 1862 Rocket 4.2 06:31:37 10° SW 06:35:38 34° WNW 06:39:43 10° N
Meteor 1-31 Rocket 4.4 06:33:53 10° NNW 06:36:20 16° NW 06:38:47 10° W
Cosmos 1441 Rocket 4.1 06:32:55 10° SW 06:36:28 30° WNW 06:40:01 10° N
CZ-2C R/B 2.6 06:33:38 10° N 06:38:35 56° WNW 06:43:37 10° SW
Cosmos 2100 Rocket 4.1 06:36:30 10° SSW 06:42:32 56° WNW 06:48:36 10° N
